Wind_Speed
61 62 63 63 64 65 66 66 66 66 67 67 68 68 68 68 68 68 68 68 69 70 71 72 73 74 75 76 77 78 78 79 80 81 82 83 84 85 86 88 88 88 87 82 75 69 67 65 65 65 64 64 63 62 62 61 57 53 50 47 45 43 39 34 29 26 23 22 21 21 22 24 26 27 28 29 29 29 30 30 30 28 29 31 30
65 65 65 65 66 67 67 68 68 68 69 69 69 69 69 69 69 69 69 70 71 72 72 73 74 75 76 77 78 79 79 79 81 82 83 84 85 87 88 89 89 88 82 74 66 63 64 63 63 63 63 64 63 63 61 57 53 51 48 45 42 40 35 30 26 23 21 20 20 20 22 24 26 27 29 30 30 29 31 31 29 28 29 31 30
67 67 68 68 69 69 69 70 70 70 71 71 71 71 70 70 69 71 71 72 73 73 73 74 76 77 77 78 79 78 79 80 82 84 85 86 87 88 89 88 87 81 73 66 60 60 62 62 63 63 63 63 63 62 57 53 51 48 44 42 39 36 30 25 22 20 19 19 20 22 24 26 28 28 30 31 31 32 33 31 29 29 29 30 30
69 70 71 71 71 71 72 72 72 73 73 73 73 72 71 72 73 73 73 73 74 74 75 75 77 77 78 78 78 78 80 83 85 86 87 88 88 88 88 84 79 71 66 60 57 60 62 61 61 61 61 61 62 59 52 50 48 44 41 38 35 31 26 21 18 16 18 20 22 25 27 28 29 30 32 33 34 34 31 28 29 29 29 30 30
70 72 73 73 74 74 74 74 75 75 74 75 75 74 74 75 74 73 73 74 75 76 76 77 77 77 78 77 78 81 84 85 86 88 88 87 86 86 82 75 69 65 61 55 56 61 60 59 59 59 59 61 61 54 48 46 43 40 37 35 32 28 22 18 14 15 19 22 24 26 28 30 31 32 32 33 35 34 29 28 29 30 30 30 30
72 74 74 75 76 76 77 76 77 76 76 76 76 76 75 74 73 74 75 76 77 77 77 77 77 78 78 78 81 84 85 86 87 88 86 84 84 80 72 67 64 60 54 53 59 60 57 57 58 57 57 61 59 50 46 43 40 37 35 33 30 24 20 16 13 14 19 22 25 28 29 31 32 32 32 35 37 35 31 31 31 31 30 30 30
74 75 76 77 77 78 78 77 77 76 76 76 77 76 75 74 76 77 77 78 78 77 76 76 77 79 80 82 85 85 85 86 87 84 81 81 78 69 64 64 60 53 50 56 61 58 57 58 59 57 58 62 55 47 45 40 37 36 34 33 27 21 18 16 13 13 19 24 27 30 31 31 33 34 36 38 38 36 34 33 33 32 31 30 30
75 76 77 78 78 78 77 76 76 76 76 76 76 76 76 78 79 79 79 78 77 76 76 77 81 82 83 84 84 84 85 84 82 78 77 76 68 62 64 61 53 48 52 60 61 58 58 61 63 62 62 61 50 44 42 37 36 36 35 32 26 20 16 15 15 15 20 26 29 32 33 34 35 36 37 37 37 38 36 36 36 34 32 31 30
77 78 78 78 78 77 77 77 77 77 77 76 77 78 79 80 79 79 78 78 78 78 78 82 85 84 83 83 82 83 83 80 76 73 72 67 61 62 63 56 50 52 59 63 62 61 63 66 67 63 61 57 45 40 38 35 36 36 35 31 26 22 19 18 18 19 22 27 30 33 35 37 37 38 38 38 39 40 39 39 38 35 33 31 30
80 80 80 80 79 79 79 79 77 77 77 78 79 80 80 79 79 79 79 80 81 81 83 85 84 82 81 81 82 82 80 77 74 70 67 62 59 58 56 53 55 61 65 66 65 65 68 68 64 60 57 49 39 36 36 36 37 37 36 32 27 24 22 22 23 24 25 27 31 33 36 38 39 40 40 40 41 41 40 38 34 33 32 30 28
82 81 82 81 81 80 79 78 77 77 78 81 81 80 79 80 80 80 81 83 83 84 85 84 81 80 81 82 82 80 78 75 71 67 64 62 59 54 54 58 63 67 68 67 67 68 69 63 58 56 51 41 35 35 36 37 37 38 37 33 30 26 25 26 27 28 28 29 32 34 36 38 39 40 41 41 41 39 35 31 29 29 28 27 25
84 83 83 83 82 81 79 79 79 80 80 80 79 79 81 82 81 82 83 84 84 84 83 81 80 80 81 80 79 77 75 71 67 64 60 59 59 58 63 67 69 68 67 66 67 68 64 57 54 50 43 36 33 34 36 38 39 40 37 33 31 28 28 29 29 29 29 30 32 34 36 38 40 40 40 38 35 31 28 26 25 24 24 24 23
85 85 85 84 83 82 81 81 81 82 82 81 81 82 84 84 83 84 84 83 82 80 79 79 80 81 82 81 77 73 70 67 64 60 58 58 61 65 69 68 66 65 65 66 67 64 58 53 50 44 37 32 33 37 39 40 41 40 37 34 31 30 30 30 30 29 30 30 32 33 35 37 38 37 33 30 27 26 24 23 22 21 22 22 22
86 87 87 86 85 83 82 83 83 85 85 84 84 84 84 84 84 84 82 80 79 79 80 81 82 82 81 79 73 69 67 65 61 58 58 61 66 69 67 64 64 64 64 65 64 58 53 49 45 39 33 33 37 40 41 41 41 39 36 33 31 30 30 30 30 30 30 29 30 31 31 31 32 30 27 24 23 22 21 20 20 21 21 22 22
87 87 87 87 86 85 85 86 87 88 87 86 85 85 85 86 86 85 82 81 81 82 81 79 77 75 73 70 67 66 65 62 59 59 62 66 70 69 66 64 64 63 63 62 58 54 49 46 40 34 32 36 39 39 40 41 39 37 35 31 30 30 30 30 29 29 29 27 27 25 25 25 26 25 22 19 19 19 19 20 20 20 21 22 22
88 89 89 89 89 89 89 89 89 89 88 87 87 86 86 87 86 85 84 83 82 80 76 71 69 67 66 65 64 65 64 62 62 63 66 68 69 68 66 64 62 61 60 58 54 50 46 42 36 32 34 37 38 38 39 39 37 35 33 31 31 30 30 30 30 30 28 28 26 23 23 23 22 21 18 16 17 18 19 20 20 21 21 22 22
91 91 91 91 91 92 92 92 92 91 91 89 88 87 86 86 86 85 83 81 78 74 69 68 68 65 63 63 63 63 65 65 66 68 67 67 67 67 65 61 60 59 58 55 51 46 42 37 33 33 35 36 37 39 39 38 36 33 32 31 30 31 31 30 31 30 27 28 26 24 24 21 20 19 17 16 17 19 20 20 21 21 22 22 23
92 92 93 92 92 92 92 92 91 91 89 87 86 86 84 84 82 79 76 73 70 68 67 67 66 64 61 60 61 63 67 68 68 67 66 65 65 64 62 59 59 59 57 52 46 41 37 34 33 36 37 37 39 40 39 37 34 31 31 30 29 30 31 31 32 30 26 26 25 25 24 20 19 20 19 19 19 20 21 21 21 21 22 22 22
90 92 91 92 91 91 91 90 89 88 86 84 82 79 77 76 74 72 68 65 64 66 66 65 63 62 60 60 63 67 69 69 67 65 64 64 63 61 59 59 59 57 54 47 41 37 35 35 37 39 39 39 39 38 36 33 31 30 28 27 27 29 30 30 31 28 25 25 25 26 25 22 20 20 20 21 21 21 21 21 21 20 21 22 22
86 86 85 85 86 86 86 86 84 81 78 75 71 70 70 69 67 65 64 64 65 67 64 63 63 64 64 65 70 71 70 68 66 65 63 61 58 57 58 60 60 56 50 44 39 38 37 38 40 39 39 38 37 35 32 30 28 26 25 24 25 26 27 27 28 25 22 23 25 27 27 25 22 21 21 22 22 22 21 20 20 20 21 21 22
80 80 78 79 81 81 82 81 80 78 73 70 67 67 67 65 63 64 66 69 71 70 68 68 69 69 70 71 73 73 71 67 64 62 60 58 55 58 61 62 60 54 47 42 40 39 40 40 40 39 38 36 35 33 30 27 25 22 22 22 22 23 23 24 26 23 20 20 24 26 28 28 26 24 23 23 23 22 21 20 20 20 21 21 22
77 76 76 78 80 80 78 77 77 76 73 71 70 68 66 67 69 72 75 75 74 74 74 74 73 73 73 72 73 72 69 65 61 59 58 58 59 63 63 62 59 51 45 42 40 40 40 39 38 37 37 36 36 33 28 23 21 20 20 20 20 20 20 22 23 21 20 19 22 25 27 28 28 27 25 24 22 22 21 20 19 20 21 22 22
80 78 80 81 80 77 76 75 75 75 74 73 74 73 74 76 77 77 76 74 72 72 71 71 70 71 71 70 69 67 65 62 59 59 60 62 64 65 62 60 57 48 43 41 39 38 36 35 35 36 37 37 36 30 23 19 19 19 18 18 19 18 20 23 22 20 19 19 21 23 24 26 27 27 26 24 23 22 22 22 21 20 22 23 23
79 78 77 76 75 75 76 77 77 77 76 75 76 77 77 77 76 74 71 70 69 68 68 68 69 69 67 66 65 63 62 60 60 62 64 64 64 62 59 57 53 45 40 39 38 36 32 31 33 37 38 37 32 25 20 19 19 18 16 17 18 19 21 24 21 18 18 20 21 22 22 23 24 26 26 25 24 23 24 24 23 23 23 24 24
74 73 71 71 72 73 74 75 75 74 74 75 74 74 74 72 71 69 68 68 68 69 69 68 68 67 66 66 64 63 62 62 63 63 63 61 59 57 56 54 49 41 37 37 37 35 32 33 37 39 39 35 30 23 20 20 19 18 17 18 20 21 23 23 19 16 17 19 21 22 24 23 24 25 26 26 26 26 26 26 26 26 25 25 26
69 70 71 73 74 73 73 72 72 72 72 71 70 69 69 68 68 68 68 68 69 69 68 67 66 66 66 65 63 62 62 62 62 61 59 57 56 56 55 50 45 39 35 36 38 36 36 37 40 41 38 34 29 23 21 20 19 19 20 22 22 23 23 21 17 17 18 19 20 22 24 26 26 27 27 28 27 27 27 27 28 28 28 27 27
70 71 71 70 70 70 70 70 70 70 69 68 68 68 67 68 69 69 68 67 67 67 67 66 65 63 62 61 60 59 59 59 58 57 57 55 55 55 52 47 43 38 32 33 37 38 38 39 40 39 37 33 28 24 23 22 20 21 23 25 26 26 25 23 21 20 20 20 20 20 22 24 26 28 29 29 28 28 28 28 28 29 30 30 28
69 68 67 66 65 65 65 67 68 69 69 69 68 68 68 69 69 68 67 66 67 67 65 63 61 60 59 58 57 57 57 56 56 56 54 52 50 49 49 46 42 37 31 30 35 37 38 39 39 39 37 31 27 25 25 23 22 22 25 27 29 29 28 29 27 24 22 21 20 19 20 21 23 25 27 27 26 26 27 27 28 28 29 30 30
65 64 65 66 66 67 67 67 68 68 68 68 68 68 68 68 67 65 65 65 65 63 60 58 58 58 58 58 56 55 55 55 54 52 49 46 44 44 46 44 39 34 30 30 34 36 37 39 39 40 36 29 26 26 25 24 24 25 27 28 30 31 31 32 30 26 24 21 21 20 20 20 21 22 23 24 24 25 26 26 27 29 30 32 32
58 60 64 66 66 66 66 66 66 65 66 67 67 66 66 65 64 64 63 61 57 55 54 56 57 57 57 57 55 53 52 52 50 48 46 43 41 41 42 40 36 33 31 33 35 35 36 38 38 36 32 28 27 28 28 26 26 28 28 29 31 33 33 31 30 27 25 23 22 20 19 20 21 22 23 23 24 25 27 28 30 32 35 36 36
56 58 60 61 62 61 61 62 62 63 65 65 65 64 63 62 63 63 61 57 54 54 56 57 56 55 56 56 54 51 50 50 49 47 45 42 38 37 36 34 33 34 34 36 37 37 37 37 36 34 32 30 30 33 32 28 28 30 31 32 34 33 33 32 29 27 27 26 23 20 19 20 21 22 23 25 26 28 30 32 34 37 39 39 37
54 55 55 55 56 57 58 60 62 63 63 63 62 61 60 61 62 60 56 54 55 57 58 57 56 54 54 54 53 52 52 51 50 48 46 43 40 36 34 33 34 36 37 39 39 40 39 38 37 35 32 31 33 34 33 30 31 32 33 35 34 31 30 29 26 24 25 24 22 20 20 21 23 24 25 27 29 30 32 34 36 37 37 36 35
51 52 52 53 54 56 58 60 62 61 61 60 59 59 59 59 57 53 52 54 57 59 59 58 57 55 54 53 52 52 53 53 51 49 48 46 43 40 38 38 38 39 39 41 42 43 42 39 38 36 33 32 33 34 33 32 33 33 33 33 32 30 28 27 25 23 22 21 22 23 24 25 25 26 27 28 29 32 33 34 34 33 33 33 33
53 53 53 53 54 56 58 60 61 60 59 58 58 59 56 52 50 50 54 57 58 58 57 57 56 54 53 53 52 51 53 54 53 51 50 49 47 45 44 43 43 43 42 42 44 45 45 44 44 42 40 38 38 37 35 33 33 33 33 33 33 32 30 31 29 24 22 23 24 26 26 26 27 27 28 29 31 33 33 33 32 32 33 33 34
57 58 57 56 56 57 60 61 61 61 60 59 59 57 51 47 50 55 58 58 57 56 54 52 52 53 53 53 53 52 53 54 54 53 52 51 50 48 48 48 48 48 48 47 47 47 48 49 50 49 48 46 44 41 36 33 33 33 34 34 34 33 33 33 30 27 27 26 25 25 26 27 28 30 31 32 33 34 34 34 33 34 34 34 33
61 62 60 59 59 61 63 63 61 58 58 56 52 49 47 48 53 56 57 56 54 53 51 49 49 50 50 49 49 50 50 51 52 52 51 50 50 50 50 50 51 51 51 51 50 50 49 49 50 51 51 50 47 42 36 34 34 34 33 32 30 30 31 31 28 24 25 26 25 25 26 28 29 30 31 32 34 35 35 35 35 35 35 34 33
58 60 59 59 61 62 62 59 55 52 53 52 47 45 47 51 55 56 54 52 50 49 48 45 45 45 45 45 45 44 44 46 47 48 49 49 48 49 50 50 51 51 52 52 52 51 50 49 48 49 50 49 46 41 36 34 32 30 29 27 26 27 27 28 25 19 18 21 22 22 24 26 28 29 30 31 32 33 33 33 34 34 34 33 32
55 54 54 54 53 54 53 52 50 50 52 50 47 48 50 54 55 53 50 48 46 45 44 42 40 41 41 41 42 41 41 42 43 43 43 43 43 44 44 45 46 47 48 50 51 51 52 51 49 49 49 48 45 40 35 32 30 28 27 25 24 25 24 26 25 20 19 20 18 20 23 25 27 28 30 30 30 30 29 29 30 30 30 29 28
51 48 43 37 35 41 43 44 44 41 39 41 46 48 48 49 49 47 44 42 42 41 41 40 38 38 38 38 39 39 38 38 37 37 37 37 37 38 38 39 40 41 43 45 47 49 50 51 50 49 48 45 42 38 34 32 33 31 30 27 23 22 20 21 24 23 24 25 23 27 29 28 30 30 30 30 29 27 25 25 26 27 27 26 25
43 43 41 33 31 36 36 35 35 30 29 36 43 45 43 42 42 42 40 39 40 40 40 39 38 37 36 36 36 35 34 34 34 34 34 34 35 35 35 36 36 37 38 40 43 45 46 48 48 47 45 42 39 37 34 33 34 34 33 32 28 24 22 24 26 26 30 32 31 33 35 34 33 32 31 30 27 24 22 24 25 26 27 26 26
40 44 46 41 40 42 41 39 35 30 32 38 42 43 40 40 41 40 38 39 40 39 39 38 36 35 34 33 33 33 32 32 33 33 33 33 33 33 34 34 34 35 36 37 39 41 43 44 43 42 41 39 37 36 35 35 35 35 35 35 33 28 27 29 29 28 31 34 36 37 37 35 34 33 33 30 25 21 22 25 26 27 27 27 26
44 46 48 46 44 46 46 44 37 33 34 35 39 41 40 42 43 41 42 42 41 39 37 36 35 34 33 34 34 34 33 32 32 33 33 34 34 34 34 34 34 35 35 36 37 38 39 39 39 38 36 34 34 35 36 36 36 36 36 35 35 31 28 30 30 29 31 33 35 34 31 29 30 31 32 29 26 24 24 25 26 27 27 27 27
39 42 44 44 44 45 47 44 40 38 33 30 36 42 44 46 45 45 46 44 41 39 35 32 32 34 34 36 36 34 32 32 32 34 35 36 37 37 37 36 36 35 35 36 36 36 36 35 35 34 33 32 33 35 36 37 36 37 38 37 37 32 27 30 33 33 36 36 33 29 27 27 28 29 29 29 28 28 27 27 28 29 29 29 29
31 37 40 41 40 40 42 42 40 37 33 35 42 46 47 46 46 47 47 43 41 38 34 32 31 32 34 36 34 32 32 33 34 35 37 38 39 39 39 39 37 36 36 36 36 36 36 34 33 34 35 34 34 36 37 37 36 36 38 39 39 33 27 30 34 35 39 40 36 32 30 31 32 33 33 32 31 31 31 31 30 30 32 32 31
32 37 41 42 39 36 35 35 37 40 41 43 44 44 44 45 45 45 43 41 40 37 35 34 33 33 34 33 32 31 32 34 35 37 38 39 40 40 40 39 37 36 36 36 35 35 35 35 34 34 36 37 37 38 38 38 39 38 38 38 37 34 30 30 34 37 41 42 40 38 35 33 33 35 35 35 34 33 33 33 33 32 33 35 33
36 41 44 43 39 39 38 36 37 42 46 45 42 42 43 43 43 42 41 39 38 36 36 35 34 33 32 32 31 31 33 35 37 38 39 39 39 39 39 38 36 35 35 35 35 34 34 35 34 33 36 38 39 39 38 38 40 41 42 40 38 36 34 32 34 38 42 43 41 40 37 35 34 34 35 36 36 36 35 35 35 35 34 34 33
37 43 45 42 40 40 42 40 39 42 44 42 40 40 41 41 42 42 41 40 38 37 36 34 34 33 33 32 31 32 33 35 37 39 39 38 38 38 37 36 34 33 33 34 34 34 34 34 35 34 35 38 40 40 39 39 39 41 44 45 43 41 40 38 37 40 43 44 42 39 37 35 34 35 36 38 39 39 39 38 37 36 35 35 34
36 41 41 40 39 41 44 43 40 42 45 44 41 39 39 40 42 42 42 42 41 39 36 34 34 34 34 33 33 33 34 35 37 38 37 35 35 35 33 32 32 32 32 33 33 34 34 34 35 34 35 37 40 40 39 39 39 40 42 44 45 44 43 41 40 42 44 46 47 44 41 38 37 37 38 40 41 42 42 41 40 39 38 38 37
39 41 37 35 37 40 45 46 43 43 46 47 45 42 41 42 42 43 44 44 43 41 38 35 34 35 37 36 35 34 34 35 36 35 34 33 32 31 29 29 29 30 31 32 33 33 34 34 34 34 34 36 39 41 41 40 39 38 39 40 41 41 42 42 42 44 45 46 47 47 45 43 42 42 42 42 42 43 44 44 43 43 41 40 39
42 43 40 38 38 40 42 45 45 45 47 48 48 47 46 45 45 44 44 44 42 41 39 36 35 35 37 36 34 33 32 32 33 33 32 30 28 27 26 26 27 28 30 31 31 32 32 33 34 34 35 36 38 40 42 42 41 40 39 39 40 40 42 42 43 44 45 45 46 46 46 46 46 46 46 45 44 45 45 45 44 43 43 42 41
45 47 47 44 41 40 41 42 44 45 46 48 49 49 49 49 48 47 46 44 42 41 40 38 36 35 35 34 33 32 30 28 30 31 31 28 24 22 22 23 24 26 28 29 30 31 31 32 33 34 34 36 37 39 41 43 43 43 41 41 40 41 43 44 45 44 44 44 45 47 48 49 50 50 50 49 48 48 48 47 45 43 42 42 43
Wind_Direction
280 280 280 281 281 282 282 283 284 285 286 287 288 289 290 292 292 293 294 295 296 297 297 298 299 301 302 303 304 305 306 307 308 308 308 309 309 309 310 311 312 312 313 313 314 315 314 312 311 311 312 314 314 314 313 313 313 313 311 311 312 312 312 308 304 301 294 286 282 278 276 275 272 270 270 273 276 278 279 280 285 288 290 290 291
278 278 279 279 279 280 281 282 283 284 285 285 287 288 289 290 291 292 293 294 295 296 297 298 300 301 302 303 304 305 307 307 307 307 308 308 308 308 309 311 311 312 312 313 314 314 313 311 311 311 313 314 313 314 314 314 314 312 310 311 312 312 311 308 303 298 290 283 280 276 274 270 266 264 265 270 274 278 280 282 285 287 286 288 290
276 277 277 278 278 279 280 281 282 283 284 285 286 287 289 289 290 292 293 294 295 296 297 299 300 301 302 303 305 305 306 307 307 307 307 307 307 308 310 311 311 311 312 313 313 313 312 311 311 312 313 313 313 314 315 315 314 312 311 313 314 312 310 306 300 294 287 282 278 273 268 264 260 260 264 270 275 282 285 283 283 284 285 287 289
276 276 276 277 278 278 279 280 281 282 283 284 285 287 288 288 290 291 292 294 295 296 297 299 300 301 303 304 304 304 305 306 306 306 306 306 307 309 310 310 310 311 311 311 312 313 312 311 312 314 313 312 313 315 314 315 316 315 315 315 315 313 308 300 292 287 285 282 275 269 265 262 261 262 266 271 277 286 287 282 281 283 284 286 287
275 275 276 276 277 278 278 279 280 281 282 283 285 286 287 288 289 291 292 294 295 297 298 299 300 302 303 303 303 304 304 305 306 306 306 306 307 309 310 310 310 310 310 310 312 313 311 312 314 314 314 313 314 314 313 316 318 318 317 316 315 312 304 291 281 282 286 279 269 264 263 263 263 264 268 273 279 285 283 279 282 282 283 285 285
275 275 276 276 277 278 278 279 280 281 282 284 285 287 288 288 289 292 293 295 296 297 298 299 300 302 302 301 302 304 304 305 306 306 305 306 308 309 308 309 309 308 308 310 313 312 310 313 315 314 314 314 313 312 312 316 318 319 319 318 316 310 298 278 266 282 285 273 264 262 263 264 265 266 271 277 280 284 281 277 281 282 282 284 284
276 276 276 277 278 278 279 280 281 282 284 285 286 287 288 288 291 294 295 296 297 297 298 299 300 301 300 301 302 303 305 306 305 305 305 306 308 308 308 308 307 305 306 310 312 310 309 312 314 313 313 314 311 309 311 315 318 320 321 320 317 305 291 271 258 276 280 272 268 265 263 266 268 271 275 278 279 282 283 278 278 282 282 282 283
276 277 277 278 279 280 280 281 283 284 286 287 287 288 289 290 293 295 296 297 297 297 297 298 300 300 300 301 302 303 305 305 304 304 305 306 306 306 307 306 302 303 306 308 310 308 308 310 311 310 311 311 308 307 310 315 318 321 323 321 315 300 284 269 258 265 270 269 269 267 266 268 270 272 275 276 278 280 283 281 279 279 280 280 281
277 277 278 279 280 280 281 283 284 285 286 287 288 289 290 292 294 295 295 296 296 296 296 297 299 299 300 301 302 303 303 303 304 304 304 304 304 305 305 303 300 302 305 306 307 307 308 309 309 308 308 307 305 305 309 316 321 323 324 321 313 298 282 268 259 260 261 265 267 267 268 268 270 273 276 277 279 279 281 283 278 275 277 278 279
277 278 279 279 280 280 282 283 284 285 286 287 289 289 290 292 294 294 294 295 295 295 296 297 298 298 299 299 301 302 301 301 302 302 301 301 303 304 303 301 301 303 304 304 305 307 309 309 309 308 305 303 302 304 310 318 323 324 323 320 313 300 285 270 262 260 259 265 269 270 271 271 272 274 276 277 279 281 282 281 276 273 274 275 274
277 278 278 278 279 280 281 282 283 284 286 287 288 289 290 292 293 293 294 294 294 294 295 296 296 297 298 299 300 300 300 300 301 299 297 298 300 300 300 300 301 302 303 303 304 307 309 310 309 306 301 299 300 305 312 319 324 324 321 318 312 303 288 275 268 264 262 266 269 271 273 273 274 275 276 278 280 281 280 278 275 272 271 271 268
276 277 278 279 279 280 280 281 282 283 286 288 287 288 290 292 292 292 292 293 293 294 294 294 295 296 298 299 299 299 299 300 299 296 295 296 296 297 299 300 300 301 302 303 304 307 310 310 308 302 297 297 300 307 316 321 323 321 319 316 312 304 294 286 279 271 266 266 267 269 273 275 276 277 278 279 279 278 278 277 273 269 267 265 263
277 278 279 280 280 280 280 280 281 282 285 286 287 288 290 291 291 291 291 292 292 293 293 294 295 296 297 297 297 298 298 298 296 293 293 294 296 299 300 300 301 302 302 303 305 308 310 309 303 297 294 294 301 312 318 321 320 318 316 315 311 305 298 293 286 277 271 268 267 270 273 277 279 280 279 278 277 278 277 274 269 264 262 262 264
277 279 280 280 281 281 280 280 281 282 284 285 286 288 289 289 289 290 291 291 291 291 292 293 295 296 296 296 295 296 297 296 293 290 292 295 299 301 301 300 302 302 301 303 306 309 309 305 298 293 290 293 304 313 316 318 317 315 314 314 312 307 300 294 287 281 276 270 269 271 273 277 280 280 278 277 278 278 274 269 264 261 261 265 268
277 278 279 280 280 280 279 280 282 283 284 285 286 287 287 287 288 288 288 289 289 290 292 294 296 296 295 295 293 295 296 295 292 291 293 296 299 300 299 301 302 301 302 305 307 308 307 300 293 288 289 298 308 313 315 316 314 314 314 314 313 309 302 294 289 286 280 273 270 268 270 277 279 278 275 277 277 274 269 266 263 262 266 270 271
277 277 278 279 279 279 279 280 281 283 284 285 286 286 286 287 287 288 288 289 290 290 292 295 296 295 294 295 294 294 294 293 294 296 297 298 299 298 298 299 300 301 303 305 306 306 302 294 288 287 295 305 312 314 315 313 313 314 314 315 313 310 304 294 290 290 281 272 268 261 267 275 274 271 271 273 273 271 269 266 267 268 271 272 271
276 277 277 278 279 279 279 280 282 283 284 285 286 287 287 287 287 288 288 289 290 290 292 294 294 293 293 293 293 293 293 294 297 298 298 297 297 296 296 297 299 301 303 305 306 302 295 289 287 293 302 308 312 313 313 312 312 313 312 313 311 309 303 292 292 292 280 270 264 255 262 269 266 266 265 268 269 269 270 270 272 273 273 273 268
276 277 277 278 278 278 280 281 283 284 285 286 287 288 287 287 287 288 289 290 290 290 292 293 292 291 292 292 292 293 294 296 297 296 295 295 295 294 295 297 299 301 303 304 303 296 288 284 287 294 302 307 311 312 312 311 311 311 312 312 310 308 300 294 297 296 282 270 262 253 258 264 263 264 263 265 266 267 269 271 274 274 274 271 263
276 277 277 277 278 279 280 282 283 284 286 287 288 288 287 286 287 288 288 289 289 291 292 291 289 290 291 291 293 294 295 295 295 294 293 294 293 292 294 297 300 301 302 302 297 290 285 284 287 295 302 307 310 311 311 310 310 311 312 313 312 308 300 299 304 301 286 272 261 254 258 262 261 264 266 266 265 266 269 271 274 274 273 268 260
277 278 278 277 278 279 281 282 283 286 287 287 288 287 287 287 287 286 287 288 289 290 289 288 288 288 288 289 291 293 293 293 293 292 292 293 291 290 293 296 298 299 299 296 291 286 283 285 290 297 303 308 310 311 310 309 309 310 313 316 314 310 301 304 311 304 292 276 263 257 259 261 261 265 269 268 267 267 270 273 274 272 271 267 261
277 277 277 277 278 280 281 281 282 285 284 284 286 286 286 285 284 285 287 288 289 288 286 286 287 287 287 288 289 290 291 292 290 289 290 290 288 289 292 294 296 297 296 291 286 282 282 286 292 298 303 307 309 310 309 306 306 308 315 318 316 312 301 307 317 307 294 281 267 261 260 262 263 266 269 269 268 267 268 271 274 274 273 269 264
275 275 275 277 280 281 281 282 282 283 282 281 282 282 282 283 283 285 287 287 287 286 285 286 286 286 287 287 288 288 289 289 287 285 286 287 287 288 291 292 293 295 292 287 283 282 284 288 292 298 302 304 307 309 306 301 303 309 317 321 321 315 301 309 320 307 294 282 270 265 263 264 265 266 267 267 265 263 264 266 271 275 275 272 268
273 274 276 278 280 280 280 282 283 283 283 281 280 279 281 282 283 285 286 287 287 286 285 285 285 286 287 287 287 287 286 285 283 283 284 286 286 287 289 289 291 292 288 283 282 286 288 288 293 298 300 303 306 308 301 298 306 312 318 326 326 316 303 311 318 305 292 280 273 268 266 267 265 264 263 262 260 260 261 263 267 272 275 275 271
274 275 277 278 278 279 279 280 282 283 283 283 282 282 283 283 283 285 285 286 286 286 286 286 286 286 287 287 285 284 283 282 281 283 285 286 286 287 287 287 289 290 285 281 284 287 285 287 294 298 300 302 306 304 297 301 309 310 317 325 324 313 305 311 314 301 286 277 273 269 266 266 264 262 260 260 260 261 261 262 265 269 274 276 274
276 275 276 278 279 280 280 280 281 282 283 284 284 284 284 283 284 284 285 286 286 285 286 286 286 286 286 285 283 282 282 282 283 285 286 286 286 286 287 287 288 287 280 279 284 284 281 287 294 298 300 302 303 299 294 300 305 305 311 319 317 307 302 307 306 293 280 275 273 267 262 261 263 262 261 262 264 267 266 263 265 268 273 276 275
276 277 277 279 280 280 281 281 281 282 283 283 283 284 284 284 284 285 286 286 286 286 285 285 286 286 285 284 283 283 283 283 284 284 284 284 285 286 285 285 286 283 278 278 281 282 283 288 294 298 300 300 297 290 288 294 297 298 303 310 310 302 298 296 291 286 281 279 280 276 268 262 263 266 267 268 271 275 274 270 267 269 273 274 273
277 278 279 280 280 280 280 280 280 280 281 282 282 283 283 284 286 287 287 286 286 286 285 285 285 284 284 284 283 283 283 283 283 283 283 284 285 283 282 282 282 280 277 277 280 282 284 288 292 296 297 296 290 284 287 292 291 291 296 301 302 298 291 284 287 292 287 287 290 289 282 273 270 270 273 275 278 280 279 276 272 271 272 272 271
279 279 280 281 281 281 281 280 280 280 281 281 281 281 282 284 286 286 286 286 287 285 284 284 283 282 282 282 282 282 281 282 283 284 286 286 284 282 280 281 280 277 275 275 279 282 284 287 289 291 292 290 287 286 291 292 288 286 287 292 296 295 288 288 297 301 293 290 289 286 285 284 280 276 275 277 280 280 278 277 276 275 274 273 271
280 279 279 280 280 281 281 282 282 281 281 281 281 282 284 285 285 285 286 287 286 283 282 283 282 281 282 281 280 280 280 282 284 285 286 286 284 282 281 281 277 272 268 270 277 281 282 284 286 287 286 281 282 287 291 289 287 289 285 285 290 292 290 294 302 303 294 287 282 280 283 286 286 283 281 280 278 276 275 276 278 279 280 279 277
281 280 278 277 279 279 280 282 282 281 281 282 283 285 285 285 285 285 285 285 284 283 283 283 283 282 281 280 278 278 280 282 283 282 282 283 282 281 280 279 273 264 259 263 272 276 278 281 283 284 280 273 273 281 289 289 288 290 286 283 286 290 293 296 301 299 292 288 285 284 285 285 285 286 286 284 280 276 275 276 279 283 285 285 282
282 283 279 277 278 278 280 281 281 282 284 285 285 285 285 285 284 284 283 281 282 285 286 284 283 281 280 278 275 276 278 279 279 278 278 279 279 279 279 276 269 261 257 261 267 271 274 279 281 281 277 268 266 275 285 289 287 287 284 284 286 290 295 299 300 297 293 294 293 290 286 284 283 282 282 281 279 277 276 277 279 284 286 285 283
282 282 280 278 277 279 281 282 283 285 285 285 285 285 285 284 283 282 282 282 284 287 287 285 283 282 280 277 273 272 275 276 275 274 274 276 277 277 276 273 269 264 259 258 262 266 271 277 278 277 273 266 265 273 282 286 286 286 285 285 286 290 297 298 298 299 296 292 288 284 280 280 281 280 281 282 283 282 280 280 281 284 284 283 284
280 280 276 276 279 282 283 284 285 286 286 286 286 285 285 283 282 282 285 287 288 288 286 285 284 282 280 277 273 271 272 272 273 274 274 276 276 275 274 274 273 271 267 263 262 263 267 272 274 272 269 268 269 273 281 284 283 284 283 281 282 287 289 289 292 296 296 288 279 277 277 280 281 281 283 286 288 288 286 285 285 285 283 282 285
279 281 277 278 283 285 285 285 285 287 287 287 287 287 284 281 283 286 288 289 288 287 286 284 284 282 279 276 273 271 270 270 271 273 274 275 276 275 275 275 276 276 274 271 267 265 265 267 269 269 269 271 273 277 282 282 281 281 279 277 278 281 283 284 285 289 297 298 288 281 280 281 282 284 288 289 288 286 285 284 284 283 282 282 284
277 282 281 281 284 284 285 286 286 287 288 288 288 284 279 277 282 287 289 289 288 286 285 284 283 282 280 277 274 273 271 269 269 271 272 274 274 276 277 277 278 277 275 273 270 268 266 265 266 267 268 271 274 278 279 278 278 277 276 276 275 277 281 284 284 287 296 299 292 284 281 282 284 286 288 288 287 286 287 286 286 285 284 285 284
275 278 280 282 284 284 285 286 287 288 288 290 287 278 274 276 281 286 288 288 287 286 285 285 284 283 282 279 277 275 274 272 272 273 274 275 276 277 278 277 276 275 274 272 270 269 268 266 265 265 266 270 274 276 275 275 277 275 274 275 273 275 279 282 287 292 296 293 284 280 282 286 287 288 287 285 285 287 290 290 289 288 286 284 280
272 271 276 283 286 285 286 287 287 288 288 288 282 274 275 278 282 285 286 286 287 287 286 285 283 282 281 279 278 277 275 276 276 276 277 278 278 279 278 277 276 274 272 271 270 270 269 268 267 266 267 271 273 274 273 273 272 270 270 271 271 275 275 277 284 287 285 281 278 277 280 284 285 287 286 285 287 288 290 289 288 286 283 281 275
265 269 279 287 288 286 286 287 288 289 290 286 277 275 279 280 282 283 284 286 288 288 287 285 282 279 277 276 276 277 277 278 278 278 278 278 278 278 278 277 277 276 274 272 271 270 270 269 268 268 269 270 271 272 271 266 260 259 263 266 270 275 273 273 277 272 262 262 270 272 271 276 280 282 284 285 287 289 289 288 286 283 281 278 274
262 271 281 282 283 287 288 288 289 290 289 281 276 279 281 279 281 282 284 287 288 289 287 284 281 279 276 274 275 276 278 278 278 277 277 277 278 279 280 280 279 278 276 274 273 271 270 269 268 268 269 269 269 269 266 260 254 254 257 258 263 267 262 265 269 263 253 251 259 264 268 277 280 280 282 283 285 288 291 291 288 286 282 278 275
263 270 272 264 267 279 283 285 288 288 281 273 274 279 281 280 284 285 284 287 289 289 287 284 281 278 275 274 273 274 276 277 277 277 278 280 282 283 283 283 282 281 280 278 275 273 271 269 268 267 267 267 267 265 262 258 256 256 254 251 255 258 250 253 262 261 255 254 258 264 272 278 279 281 284 286 287 290 293 294 294 292 287 281 277
263 268 268 264 262 267 272 276 279 279 269 263 267 273 276 281 286 285 285 290 290 286 285 284 280 276 274 272 271 272 275 277 277 279 281 282 283 285 286 286 286 285 283 281 278 275 272 269 267 267 266 265 263 261 259 258 256 254 250 245 248 256 254 252 258 261 258 257 260 266 273 277 279 283 285 287 288 287 290 292 292 291 289 284 279
263 268 269 267 263 262 265 267 263 261 261 261 267 268 271 279 283 282 287 291 288 284 283 280 275 272 271 271 273 275 276 277 279 281 284 285 286 288 288 289 289 288 285 282 279 276 273 271 268 266 264 261 258 257 258 257 255 252 248 244 245 255 264 259 254 254 255 257 261 267 274 276 278 281 284 284 280 276 281 287 287 287 287 286 282
261 266 269 266 262 260 261 261 257 256 254 247 255 264 270 277 279 280 287 289 284 282 279 274 271 269 269 272 275 277 278 281 284 287 289 291 292 292 292 292 291 290 288 284 279 276 275 273 268 262 258 256 253 254 256 256 254 251 248 246 245 251 263 261 254 252 253 257 262 265 267 268 270 273 278 281 278 273 274 279 283 283 283 283 283
255 262 264 259 258 259 259 257 254 250 240 235 248 263 270 272 276 282 288 289 285 279 274 270 269 267 268 271 274 277 281 285 288 291 295 296 296 295 294 293 291 289 287 284 280 276 275 273 268 258 252 252 251 252 253 252 251 250 248 246 245 249 256 254 254 257 257 258 261 264 266 268 269 270 272 275 276 274 272 274 278 279 280 280 282
250 251 252 251 252 254 252 251 250 243 237 244 255 262 266 269 275 283 290 290 286 279 272 269 267 266 267 268 271 277 282 287 290 294 297 297 297 296 294 292 289 287 285 282 280 277 275 273 270 260 250 249 251 251 251 250 248 248 247 247 247 253 258 254 254 257 260 261 262 264 268 270 272 272 273 274 274 275 275 275 274 277 279 280 281
252 245 244 246 248 249 249 247 248 247 245 249 256 258 263 269 274 281 287 288 287 284 278 271 265 262 261 262 267 275 282 287 291 295 296 296 296 296 293 290 287 284 282 280 279 277 275 272 269 262 251 248 250 250 251 250 248 247 247 251 254 258 262 261 256 255 259 263 264 265 267 269 272 274 275 275 275 277 279 279 277 277 278 278 279
255 250 247 248 246 245 248 246 245 251 251 252 257 260 263 268 272 277 281 284 286 286 283 276 270 264 260 259 264 273 280 285 291 295 295 295 296 295 292 289 286 284 281 279 277 276 274 271 268 264 255 248 249 251 252 252 251 249 247 250 256 260 262 262 257 253 255 259 263 265 267 269 273 277 278 277 277 278 279 281 280 277 274 273 273
245 250 251 251 247 241 245 250 249 247 249 253 259 263 265 268 271 273 277 282 284 287 287 282 277 272 266 263 265 271 277 284 291 294 294 296 297 295 293 290 288 286 282 278 276 275 273 271 268 266 259 252 250 251 253 253 253 252 250 250 253 257 260 260 256 252 252 255 259 264 268 272 276 279 281 279 277 277 277 279 280 277 272 269 269
235 245 248 246 246 242 242 249 252 248 246 251 257 260 264 268 270 272 276 280 282 285 287 283 278 274 269 267 268 274 280 286 289 290 292 295 296 295 293 291 289 286 283 279 276 275 273 271 269 267 263 258 253 252 254 256 255 254 253 253 254 256 257 256 253 251 252 253 257 261 266 272 277 280 282 282 279 278 277 277 278 277 274 270 267
234 241 244 241 242 243 244 246 249 251 250 252 255 256 261 266 268 271 274 277 280 283 283 281 278 274 269 267 270 276 282 285 287 288 292 295 295 294 292 291 289 286 284 281 277 275 273 272 271 269 266 263 258 256 255 257 259 258 257 257 257 257 257 254 251 251 252 254 256 260 264 270 276 279 281 282 282 281 279 277 276 275 275 271 267
231 235 239 240 239 241 245 247 248 252 253 255 256 257 260 263 266 269 273 275 277 281 281 280 281 277 269 266 269 273 278 284 288 290 292 293 292 293 294 292 290 288 286 283 280 278 275 274 273 272 270 267 264 261 259 258 259 260 260 259 258 257 258 257 254 253 256 258 259 262 266 271 275 278 280 281 281 281 280 277 273 272 273 272 269
Height
10912 10911 10910 10909 10908 10907 10906 10905 10905 10904 10904 10904 10903 10903 10903 10904 10904 10903 10902 10902 10901 10899 10898 10896 10894 10893 10891 10889 10886 10884 10883 10881 10878 10876 10874 10872 10870 10867 10865 10862 10861 10859 10858 10856 10853 10851 10848 10845 10843 10840 10838 10835 10831 10828 10824 10821 10818 10815 10812 10810 10808 10806 10804 10802 10801 10801 10800 10801 10801 10801 10802 10802 10802 10802 10801 10801 10801 10801 10801 10801 10801 10801 10801 10800 10800
10906 10906 10906 10904 10903 10903 10902 10901 10901 10900 10900 10900 10900 10900 10900 10900 10900 10899 10899 10898 10897 10895 10894 10893 10891 10889 10887 10885 10882 10881 10879 10877 10875 10872 10870 10868 10865 10863 10860 10858 10856 10855 10853 10851 10849 10847 10844 10842 10839 10837 10834 10831 10828 10824 10821 10817 10814 10811 10809 10806 10804 10802 10800 10799 10798 10797 10798 10798 10799 10799 10799 10799 10799 10798 10798 10798 10798 10799 10798 10798 10798 10798 10798 10798 10797
10902 10901 10900 10899 10899 10898 10898 10897 10897 10897 10896 10896 10896 10896 10897 10897 10896 10895 10895 10894 10893 10891 10891 10889 10886 10884 10882 10881 10878 10876 10874 10873 10871 10868 10866 10863 10861 10858 10856 10854 10851 10850 10849 10847 10845 10843 10840 10838 10836 10833 10830 10827 10824 10821 10817 10814 10811 10808 10806 10803 10801 10799 10797 10796 10795 10795 10795 10796 10796 10796 10796 10796 10795 10795 10795 10795 10795 10796 10795 10795 10796 10795 10795 10795 10795
10898 10896 10895 10894 10894 10893 10893 10893 10892 10892 10892 10892 10892 10893 10893 10893 10892 10891 10891 10890 10889 10888 10887 10885 10882 10880 10878 10877 10874 10872 10870 10868 10866 10863 10861 10858 10856 10854 10852 10849 10847 10846 10845 10843 10841 10839 10836 10834 10832 10829 10826 10823 10820 10817 10814 10811 10808 10805 10803 10800 10798 10796 10795 10793 10793 10793 10793 10794 10794 10794 10793 10793 10792 10792 10792 10792 10793 10793 10793 10793 10793 10793 10793 10792 10792
10893 10891 10890 10889 10888 10888 10887 10888 10888 10888 10888 10888 10888 10889 10889 10888 10888 10887 10887 10886 10885 10884 10883 10881 10877 10875 10874 10872 10870 10868 10865 10863 10861 10858 10856 10853 10852 10850 10847 10844 10842 10841 10840 10839 10837 10835 10833 10831 10828 10826 10823 10819 10816 10813 10811 10808 10805 10803 10800 10798 10795 10793 10792 10791 10791 10791 10791 10792 10792 10791 10791 10790 10790 10790 10790 10790 10790 10790 10790 10790 10790 10790 10790 10790 10790
10888 10886 10885 10884 10883 10883 10883 10884 10883 10884 10884 10884 10884 10884 10884 10883 10883 10883 10882 10881 10880 10879 10878 10876 10873 10871 10869 10867 10865 10863 10861 10859 10856 10852 10850 10848 10847 10845 10842 10839 10838 10837 10836 10835 10834 10832 10829 10827 10825 10822 10819 10816 10813 10810 10808 10805 10802 10800 10797 10795 10792 10790 10789 10789 10788 10789 10790 10789 10789 10788 10788 10788 10787 10787 10787 10787 10786 10787 10787 10787 10787 10787 10787 10787 10787
10882 10881 10880 10879 10878 10878 10878 10879 10879 10880 10880 10880 10880 10879 10879 10878 10878 10878 10877 10876 10876 10875 10874 10871 10868 10866 10864 10862 10860 10858 10856 10854 10851 10847 10845 10843 10842 10840 10837 10835 10833 10833 10832 10831 10830 10828 10825 10823 10821 10819 10816 10813 10810 10807 10805 10802 10800 10797 10794 10792 10790 10788 10787 10786 10786 10787 10787 10787 10786 10786 10785 10785 10785 10784 10784 10784 10783 10783 10784 10784 10784 10784 10785 10784 10784
10877 10876 10875 10875 10874 10874 10874 10875 10875 10876 10876 10876 10875 10875 10874 10873 10873 10872 10872 10871 10871 10870 10868 10866 10864 10861 10858 10857 10855 10853 10852 10849 10846 10842 10840 10839 10837 10836 10834 10831 10829 10828 10828 10827 10826 10824 10821 10819 10817 10815 10812 10809 10806 10803 10801 10800 10797 10794 10792 10789 10788 10786 10785 10784 10784 10784 10784 10784 10783 10783 10782 10782 10781 10781 10781 10781 10780 10780 10780 10780 10781 10781 10782 10782 10782
10871 10871 10870 10870 10869 10869 10870 10871 10871 10872 10872 10871 10870 10870 10869 10868 10868 10867 10867 10866 10866 10865 10863 10861 10859 10856 10853 10852 10850 10849 10847 10845 10842 10838 10836 10835 10833 10831 10830 10827 10826 10824 10823 10822 10821 10819 10817 10815 10812 10810 10808 10806 10803 10800 10798 10797 10794 10791 10789 10787 10786 10784 10783 10782 10781 10781 10780 10780 10779 10779 10779 10778 10778 10778 10778 10777 10777 10777 10777 10777 10777 10778 10778 10779 10779
10866 10866 10865 10864 10865 10866 10866 10867 10867 10867 10867 10866 10865 10864 10864 10863 10863 10862 10861 10861 10860 10859 10858 10856 10853 10851 10849 10847 10846 10845 10843 10840 10837 10834 10832 10831 10829 10827 10825 10824 10822 10820 10819 10818 10816 10815 10813 10810 10808 10806 10804 10802 10799 10797 10795 10794 10791 10788 10786 10785 10783 10782 10781 10780 10779 10777 10777 10776 10776 10776 10775 10775 10774 10774 10774 10774 10774 10774 10773 10773 10773 10774 10775 10776 10776
10860 10860 10859 10859 10861 10862 10862 10863 10863 10862 10861 10860 10860 10859 10859 10858 10858 10857 10856 10856 10855 10854 10852 10851 10849 10846 10844 10843 10842 10840 10838 10835 10833 10830 10827 10826 10825 10823 10822 10820 10819 10816 10814 10813 10812 10810 10808 10806 10803 10801 10800 10798 10796 10794 10792 10791 10789 10786 10784 10783 10781 10779 10778 10776 10775 10774 10773 10773 10773 10773 10772 10772 10771 10771 10771 10771 10770 10770 10770 10770 10770 10771 10772 10773 10773
10855 10854 10854 10855 10856 10857 10857 10858 10858 10857 10856 10855 10854 10854 10854 10853 10853 10852 10851 10850 10849 10848 10847 10846 10844 10842 10840 10838 10837 10835 10833 10831 10828 10825 10823 10821 10820 10819 10818 10816 10814 10812 10810 10808 10807 10806 10804 10801 10799 10798 10796 10795 10793 10791 10789 10787 10786 10784 10782 10780 10778 10776 10774 10773 10771 10771 10770 10770 10770 10770 10770 10769 10768 10767 10767 10767 10767 10767 10767 10767 10767 10768 10769 10770 10771
10849 10849 10849 10850 10850 10852 10852 10853 10852 10851 10850 10850 10850 10850 10850 10849 10848 10847 10845 10845 10844 10844 10843 10841 10839 10836 10835 10833 10832 10830 10828 10826 10824 10821 10819 10817 10815 10814 10813 10812 10810 10808 10806 10804 10802 10801 10799 10797 10795 10794 10793 10792 10790 10787 10785 10784 10784 10782 10780 10777 10775 10773 10771 10769 10768 10768 10767 10767 10767 10767 10767 10766 10765 10765 10764 10764 10764 10764 10764 10764 10765 10766 10767 10767 10768
10845 10845 10844 10845 10845 10846 10847 10847 10846 10845 10845 10846 10846 10846 10845 10843 10842 10841 10840 10840 10839 10839 10838 10836 10834 10831 10829 10828 10826 10824 10823 10822 10819 10816 10814 10812 10810 10809 10808 10808 10806 10805 10802 10800 10798 10796 10795 10793 10791 10791 10790 10789 10787 10784 10783 10782 10781 10780 10777 10775 10773 10770 10768 10766 10765 10765 10764 10764 10764 10764 10764 10763 10762 10762 10762 10761 10761 10762 10762 10762 10763 10764 10764 10765 10766
10841 10840 10839 10839 10840 10841 10841 10840 10839 10839 10840 10842 10841 10841 10839 10837 10837 10836 10835 10835 10835 10834 10832 10830 10828 10825 10823 10821 10819 10819 10818 10817 10815 10813 10811 10808 10806 10804 10803 10803 10802 10800 10798 10796 10794 10792 10791 10790 10788 10787 10787 10785 10783 10782 10781 10780 10779 10777 10774 10772 10770 10767 10765 10762 10762 10762 10761 10761 10761 10761 10761 10761 10760 10760 10759 10759 10759 10759 10760 10760 10761 10761 10762 10763 10763
10835 10835 10835 10835 10835 10835 10834 10834 10834 10834 10835 10836 10835 10834 10833 10831 10830 10829 10829 10829 10829 10827 10826 10825 10822 10820 10818 10816 10813 10812 10812 10812 10810 10809 10807 10804 10801 10799 10798 10799 10797 10796 10794 10792 10790 10789 10788 10787 10785 10784 10783 10781 10781 10780 10779 10778 10776 10774 10771 10769 10767 10764 10762 10759 10758 10758 10758 10757 10758 10758 10759 10758 10758 10757 10757 10757 10757 10757 10758 10758 10759 10759 10760 10760 10761
10830 10829 10830 10830 10829 10829 10827 10828 10829 10829 10829 10830 10829 10828 10826 10824 10823 10823 10823 10823 10823 10821 10820 10820 10817 10815 10813 10810 10808 10806 10805 10805 10805 10804 10802 10799 10796 10794 10793 10794 10793 10792 10789 10788 10787 10786 10784 10784 10783 10781 10780 10779 10778 10778 10777 10775 10773 10771 10769 10767 10764 10762 10759 10756 10754 10755 10754 10754 10754 10755 10756 10755 10755 10755 10754 10754 10754 10754 10755 10756 10756 10757 10757 10758 10758
10824 10823 10823 10823 10822 10822 10821 10822 10823 10823 10824 10825 10823 10821 10819 10817 10817 10817 10817 10817 10816 10815 10815 10815 10813 10810 10808 10805 10803 10800 10799 10799 10800 10799 10797 10795 10792 10789 10789 10789 10788 10787 10786 10785 10784 10783 10781 10781 10780 10779 10777 10776 10775 10775 10774 10772 10770 10768 10766 10764 10762 10759 10756 10753 10752 10752 10752 10750 10751 10752 10752 10753 10752 10752 10752 10752 10752 10752 10752 10753 10753 10754 10754 10755 10756
10816 10816 10816 10816 10815 10815 10816 10817 10818 10819 10820 10818 10816 10814 10813 10811 10811 10811 10811 10811 10810 10809 10809 10809 10807 10805 10803 10801 10798 10796 10794 10794 10794 10793 10792 10790 10788 10785 10784 10784 10783 10783 10782 10782 10782 10780 10779 10777 10776 10775 10774 10773 10772 10771 10770 10769 10767 10765 10763 10761 10759 10756 10753 10750 10749 10750 10749 10748 10748 10749 10749 10750 10750 10750 10750 10749 10749 10750 10750 10750 10751 10751 10752 10753 10753
10809 10810 10809 10809 10809 10810 10811 10812 10813 10815 10815 10811 10809 10808 10807 10806 10805 10804 10805 10805 10804 10803 10803 10802 10801 10800 10798 10796 10794 10792 10790 10790 10789 10788 10787 10787 10784 10782 10781 10780 10779 10779 10779 10779 10779 10778 10775 10773 10772 10771 10771 10769 10768 10767 10767 10766 10764 10762 10761 10758 10756 10753 10750 10748 10747 10747 10747 10746 10745 10746 10746 10747 10747 10748 10747 10747 10747 10747 10747 10748 10748 10749 10749 10750 10751
10805 10803 10803 10804 10804 10806 10806 10807 10808 10809 10809 10805 10803 10802 10801 10800 10798 10798 10798 10799 10798 10797 10796 10795 10794 10793 10792 10791 10789 10787 10786 10785 10784 10783 10783 10783 10781 10779 10777 10777 10776 10776 10776 10776 10776 10774 10772 10770 10768 10768 10767 10766 10765 10764 10763 10762 10761 10760 10758 10755 10752 10750 10747 10745 10745 10745 10744 10743 10743 10743 10743 10744 10744 10745 10745 10745 10744 10744 10745 10745 10746 10746 10747 10747 10748
10801 10798 10799 10801 10800 10800 10801 10801 10802 10801 10802 10801 10799 10797 10796 10794 10793 10792 10792 10792 10791 10790 10789 10788 10787 10787 10786 10785 10783 10781 10780 10779 10778 10778 10778 10778 10777 10775 10774 10773 10772 10772 10772 10772 10771 10770 10768 10766 10765 10764 10764 10763 10761 10760 10760 10759 10758 10756 10754 10752 10749 10746 10743 10742 10743 10742 10741 10741 10740 10740 10740 10741 10741 10741 10742 10742 10742 10742 10742 10743 10743 10744 10744 10744 10745
10797 10795 10796 10797 10795 10795 10796 10795 10794 10794 10795 10794 10793 10792 10790 10789 10788 10786 10786 10786 10785 10783 10782 10781 10780 10781 10780 10778 10776 10775 10774 10773 10773 10773 10773 10772 10772 10770 10769 10769 10768 10767 10766 10767 10766 10765 10764 10763 10762 10761 10760 10758 10757 10756 10756 10755 10753 10752 10750 10748 10745 10743 10740 10740 10741 10740 10739 10738 10737 10737 10737 10737 10737 10738 10738 10739 10739 10739 10740 10740 10741 10741 10741 10741 10742
10792 10794 10793 10792 10791 10791 10791 10790 10787 10787 10787 10786 10785 10784 10783 10783 10782 10780 10779 10779 10779 10777 10775 10775 10774 10775 10774 10772 10770 10769 10768 10768 10767 10768 10767 10767 10766 10765 10765 10764 10763 10762 10762 10762 10762 10761 10760 10759 10758 10756 10755 10754 10753 10752 10751 10750 10749 10748 10746 10744 10742 10739 10737 10737 10739 10738 10737 10735 10735 10735 10735 10735 10735 10735 10735 10736 10737 10737 10737 10738 10738 10738 10739 10739 10739
10788 10788 10787 10787 10786 10786 10786 10785 10783 10781 10780 10779 10778 10776 10776 10776 10775 10774 10773 10773 10771 10770 10770 10769 10769 10769 10767 10765 10763 10763 10763 10763 10762 10763 10762 10762 10761 10760 10759 10759 10758 10758 10758 10758 10757 10756 10756 10755 10754 10752 10751 10750 10749 10748 10747 10746 10745 10744 10742 10740 10738 10736 10734 10734 10736 10735 10734 10733 10732 10732 10732 10732 10732 10733 10733 10734 10734 10734 10735 10735 10736 10736 10736 10736 10736
10781 10781 10780 10781 10780 10780 10780 10780 10778 10776 10775 10773 10771 10770 10769 10768 10767 10767 10766 10765 10764 10764 10764 10764 10763 10762 10760 10759 10758 10758 10758 10757 10757 10758 10758 10757 10756 10755 10754 10753 10753 10755 10756 10755 10753 10752 10753 10752 10750 10749 10747 10746 10745 10744 10743 10743 10742 10741 10739 10737 10735 10732 10730 10730 10732 10732 10731 10731 10731 10730 10730 10730 10731 10731 10731 10732 10732 10732 10732 10733 10733 10733 10734 10734 10734
10774 10774 10774 10773 10774 10774 10774 10774 10773 10772 10770 10768 10766 10765 10764 10763 10761 10760 10759 10759 10758 10758 10758 10758 10757 10756 10754 10753 10753 10752 10752 10752 10752 10753 10753 10753 10752 10750 10749 10748 10749 10751 10752 10751 10749 10749 10750 10749 10747 10746 10745 10743 10742 10740 10740 10740 10739 10738 10737 10735 10733 10730 10726 10725 10728 10730 10730 10729 10730 10729 10729 10729 10729 10729 10729 10730 10730 10730 10730 10730 10730 10731 10731 10731 10731
10767 10768 10767 10767 10767 10768 10768 10768 10767 10765 10764 10761 10760 10759 10759 10758 10756 10755 10753 10754 10754 10753 10753 10752 10752 10750 10749 10748 10748 10747 10747 10747 10748 10748 10748 10747 10746 10745 10745 10745 10746 10747 10748 10748 10746 10746 10746 10745 10744 10743 10742 10740 10738 10736 10736 10736 10735 10735 10734 10733 10730 10727 10723 10721 10725 10728 10728 10728 10728 10728 10728 10727 10727 10727 10728 10728 10728 10728 10727 10727 10727 10727 10728 10728 10728
10761 10761 10760 10760 10761 10762 10762 10762 10760 10758 10756 10754 10753 10753 10753 10752 10751 10749 10749 10749 10749 10748 10748 10747 10746 10745 10745 10744 10744 10743 10742 10743 10743 10743 10742 10742 10742 10741 10741 10741 10742 10743 10745 10745 10744 10743 10742 10741 10741 10740 10739 10737 10735 10732 10732 10732 10732 10732 10731 10729 10727 10725 10721 10720 10723 10725 10726 10726 10726 10726 10726 10726 10726 10725 10725 10726 10726 10725 10724 10724 10724 10724 10724 10724 10725
10755 10754 10754 10754 10755 10756 10756 10755 10754 10751 10749 10747 10746 10747 10747 10746 10744 10743 10743 10743 10743 10744 10743 10742 10741 10740 10740 10740 10739 10739 10738 10738 10739 10738 10737 10737 10737 10738 10738 10737 10738 10739 10741 10742 10741 10740 10739 10738 10737 10737 10736 10735 10733 10730 10729 10730 10730 10729 10727 10725 10724 10722 10720 10721 10722 10722 10722 10723 10724 10724 10724 10724 10723 10723 10723 10723 10723 10723 10722 10722 10721 10721 10721 10721 10721
10749 10749 10748 10749 10749 10749 10750 10749 10747 10746 10743 10740 10740 10741 10740 10739 10738 10737 10737 10737 10738 10739 10738 10737 10736 10735 10734 10735 10735 10734 10734 10734 10734 10734 10732 10732 10733 10734 10734 10733 10733 10735 10737 10738 10737 10736 10735 10735 10734 10733 10732 10731 10730 10728 10727 10729 10728 10725 10722 10721 10720 10720 10719 10718 10719 10719 10718 10719 10721 10721 10721 10721 10720 10720 10720 10720 10720 10720 10720 10719 10719 10719 10718 10718 10718
10745 10744 10743 10743 10743 10743 10744 10743 10742 10740 10738 10735 10735 10735 10735 10733 10732 10731 10731 10732 10733 10733 10732 10731 10730 10730 10729 10729 10730 10730 10730 10729 10729 10728 10727 10728 10729 10729 10729 10729 10729 10730 10732 10733 10733 10732 10731 10732 10731 10730 10729 10728 10727 10726 10725 10726 10725 10722 10719 10717 10717 10718 10717 10716 10716 10716 10715 10716 10717 10717 10718 10717 10717 10716 10716 10717 10717 10717 10717 10717 10717 10716 10716 10715 10715
10740 10740 10738 10737 10737 10737 10737 10737 10737 10735 10733 10730 10729 10729 10729 10728 10726 10726 10725 10726 10727 10727 10726 10725 10724 10724 10724 10724 10725 10726 10726 10725 10724 10723 10723 10723 10724 10724 10725 10725 10725 10726 10727 10727 10728 10727 10727 10728 10727 10726 10725 10725 10725 10724 10723 10723 10721 10719 10717 10715 10714 10715 10714 10714 10715 10714 10714 10714 10714 10714 10714 10713 10713 10712 10712 10713 10713 10713 10713 10713 10713 10713 10712 10712 10712
10736 10734 10733 10732 10732 10732 10731 10732 10732 10730 10728 10726 10724 10723 10723 10721 10720 10720 10719 10720 10721 10721 10721 10719 10718 10718 10718 10718 10719 10720 10721 10721 10720 10719 10719 10720 10719 10719 10720 10721 10721 10721 10722 10722 10722 10723 10723 10723 10723 10722 10722 10721 10721 10721 10720 10719 10717 10715 10714 10713 10712 10710 10711 10712 10713 10713 10713 10712 10711 10711 10710 10710 10709 10709 10709 10710 10710 10710 10709 10709 10709 10709 10709 10709 10709
10731 10729 10729 10729 10728 10727 10726 10727 10727 10725 10722 10720 10717 10716 10716 10715 10714 10714 10713 10714 10715 10715 10715 10714 10712 10711 10712 10712 10713 10714 10714 10715 10716 10715 10715 10715 10715 10714 10714 10714 10715 10715 10716 10716 10716 10717 10718 10718 10718 10718 10718 10718 10718 10718 10717 10716 10714 10712 10710 10710 10709 10708 10708 10708 10711 10712 10711 10709 10708 10707 10707 10707 10707 10707 10707 10707 10706 10706 10706 10706 10706 10705 10705 10705 10705
10726 10726 10727 10727 10726 10724 10721 10722 10723 10720 10715 10713 10711 10710 10709 10709 10709 10708 10708 10708 10708 10708 10709 10709 10707 10705 10705 10705 10706 10707 10707 10708 10709 10710 10710 10710 10710 10709 10708 10708 10708 10709 10709 10710 10710 10711 10712 10713 10713 10713 10713 10714 10714 10714 10714 10713 10711 10709 10708 10706 10705 10705 10705 10705 10708 10710 10708 10706 10704 10704 10704 10704 10704 10704 10704 10703 10703 10703 10702 10702 10702 10702 10701 10701 10701
10724 10726 10727 10726 10724 10721 10717 10716 10717 10714 10709 10705 10704 10703 10703 10702 10702 10702 10702 10702 10701 10702 10704 10704 10703 10701 10700 10700 10700 10701 10701 10702 10703 10704 10703 10703 10704 10703 10703 10702 10702 10703 10703 10704 10704 10705 10705 10706 10707 10707 10708 10709 10709 10709 10710 10710 10709 10707 10705 10704 10702 10702 10703 10703 10704 10706 10705 10702 10701 10701 10701 10701 10701 10701 10701 10700 10700 10700 10700 10699 10699 10698 10697 10697 10697
10725 10728 10729 10726 10720 10715 10712 10710 10709 10707 10701 10696 10696 10696 10696 10695 10694 10695 10695 10695 10696 10697 10698 10699 10698 10698 10697 10696 10696 10697 10697 10698 10698 10698 10698 10698 10698 10698 10698 10698 10698 10698 10698 10698 10698 10699 10699 10700 10701 10701 10702 10703 10703 10704 10706 10706 10707 10706 10704 10702 10700 10699 10700 10701 10701 10702 10702 10700 10698 10697 10697 10698 10698 10698 10698 10697 10697 10697 10697 10696 10695 10694 10694 10693 10693
10728 10732 10731 10726 10718 10711 10707 10704 10702 10702 10696 10690 10689 10690 10690 10689 10688 10688 10689 10689 10690 10691 10692 10693 10694 10694 10694 10693 10693 10694 10694 10695 10694 10694 10694 10694 10694 10694 10694 10693 10693 10693 10693 10693 10693 10693 10693 10694 10695 10696 10696 10698 10698 10699 10701 10702 10703 10704 10703 10700 10699 10697 10697 10697 10698 10698 10698 10697 10695 10693 10694 10695 10695 10695 10695 10695 10695 10694 10693 10693 10692 10691 10691 10690 10690
10728 10730 10726 10722 10719 10712 10704 10700 10699 10701 10698 10690 10685 10686 10685 10684 10684 10683 10684 10685 10686 10686 10687 10688 10689 10690 10690 10690 10690 10691 10692 10692 10691 10690 10690 10690 10690 10690 10690 10690 10689 10689 10688 10688 10687 10687 10688 10689 10690 10690 10691 10693 10694 10695 10696 10697 10699 10701 10701 10699 10697 10696 10695 10694 10695 10695 10695 10694 10692 10690 10692 10692 10692 10691 10691 10692 10692 10692 10691 10690 10689 10689 10688 10688 10687
10727 10722 10716 10717 10718 10711 10703 10699 10699 10701 10700 10691 10683 10683 10683 10681 10681 10681 10681 10682 10682 10682 10682 10684 10685 10686 10687 10687 10687 10688 10689 10688 10687 10686 10686 10687 10687 10686 10686 10685 10685 10684 10684 10683 10682 10682 10683 10683 10684 10685 10686 10688 10690 10691 10692 10693 10695 10697 10698 10697 10695 10694 10692 10691 10692 10692 10692 10690 10689 10688 10689 10689 10689 10688 10688 10689 10689 10689 10688 10687 10686 10686 10686 10685 10685
10724 10714 10708 10710 10710 10704 10699 10697 10697 10697 10697 10689 10681 10680 10680 10679 10679 10679 10678 10678 10678 10679 10679 10680 10681 10682 10683 10683 10683 10684 10685 10685 10684 10683 10682 10682 10682 10682 10681 10680 10680 10679 10678 10677 10677 10677 10678 10679 10679 10680 10682 10684 10686 10687 10688 10689 10690 10693 10694 10695 10694 10692 10689 10687 10688 10690 10689 10687 10686 10686 10687 10687 10686 10685 10685 10685 10685 10685 10685 10684 10684 10683 10683 10683 10683
10716 10706 10701 10700 10698 10695 10692 10690 10690 10690 10689 10684 10678 10677 10677 10678 10677 10676 10676 10676 10676 10676 10677 10677 10678 10679 10680 10680 10680 10680 10681 10681 10681 10679 10678 10677 10677 10676 10676 10675 10675 10674 10673 10672 10672 10673 10673 10674 10675 10675 10677 10679 10682 10683 10684 10685 10686 10688 10690 10691 10691 10690 10687 10683 10683 10685 10685 10684 10684 10684 10684 10684 10683 10683 10682 10682 10682 10682 10682 10681 10681 10680 10680 10681 10681
10707 10696 10688 10685 10687 10688 10686 10684 10685 10684 10681 10677 10674 10674 10675 10675 10675 10674 10673 10673 10673 10674 10674 10674 10675 10676 10677 10677 10677 10677 10676 10676 10676 10675 10673 10672 10671 10671 10670 10670 10670 10669 10668 10667 10668 10668 10669 10669 10670 10671 10672 10674 10677 10679 10680 10681 10683 10684 10685 10686 10687 10687 10685 10681 10679 10680 10680 10680 10682 10681 10681 10680 10680 10680 10680 10680 10679 10679 10678 10678 10678 10677 10677 10678 10679
10695 10685 10676 10675 10682 10684 10682 10680 10679 10679 10676 10673 10672 10672 10672 10672 10672 10671 10670 10669 10670 10671 10671 10672 10673 10673 10674 10674 10674 10673 10672 10671 10671 10670 10669 10668 10667 10667 10666 10666 10666 10665 10664 10663 10663 10664 10664 10665 10665 10666 10667 10669 10671 10674 10675 10677 10679 10680 10680 10681 10681 10681 10681 10680 10678 10677 10676 10676 10678 10678 10678 10677 10676 10675 10676 10676 10676 10675 10675 10675 10675 10674 10674 10675 10676
10683 10676 10671 10674 10679 10680 10678 10676 10673 10672 10672 10671 10671 10670 10669 10669 10668 10668 10666 10666 10666 10668 10669 10669 10670 10671 10671 10671 10670 10669 10668 10667 10666 10666 10666 10665 10664 10663 10663 10662 10662 10661 10660 10660 10660 10660 10661 10661 10661 10662 10663 10664 10666 10668 10670 10672 10674 10675 10676 10676 10677 10676 10677 10677 10676 10675 10673 10672 10673 10674 10674 10673 10672 10672 10671 10672 10672 10671 10671 10671 10671 10671 10671 10671 10672
10675 10670 10669 10672 10675 10675 10673 10672 10670 10669 10669 10669 10668 10667 10666 10665 10664 10664 10663 10662 10663 10665 10666 10667 10667 10667 10668 10668 10667 10666 10665 10664 10663 10662 10662 10662 10661 10660 10659 10658 10658 10657 10657 10657 10657 10657 10658 10658 10658 10659 10660 10660 10661 10663 10665 10667 10668 10670 10671 10672 10672 10672 10672 10672 10673 10672 10670 10668 10668 10669 10669 10669 10669 10668 10668 10668 10668 10667 10667 10667 10667 10667 10667 10667 10668
10670 10662 10663 10667 10669 10670 10669 10667 10667 10667 10666 10665 10664 10663 10663 10661 10661 10660 10660 10659 10660 10662 10663 10664 10665 10666 10666 10666 10665 10664 10663 10662 10662 10661 10659 10658 10657 10656 10655 10655 10654 10654 10654 10654 10654 10654 10654 10655 10655 10655 10656 10656 10657 10659 10660 10662 10663 10664 10666 10667 10668 10668 10668 10668 10669 10668 10666 10665 10664 10664 10665 10665 10665 10665 10664 10664 10664 10664 10664 10663 10663 10662 10662 10662 10663
10662 10656 10658 10663 10664 10664 10664 10663 10664 10664 10663 10662 10661 10660 10659 10658 10658 10658 10657 10657 10657 10659 10660 10661 10662 10663 10663 10663 10663 10662 10662 10661 10661 10659 10657 10656 10654 10653 10653 10652 10651 10651 10651 10652 10652 10652 10652 10652 10652 10652 10652 10653 10653 10654 10656 10657 10659 10660 10661 10662 10663 10664 10664 10665 10664 10664 10663 10662 10661 10661 10661 10661 10661 10661 10660 10660 10659 10660 10660 10660 10659 10658 10658 10658 10658
10656 10652 10653 10657 10657 10658 10658 10659 10659 10659 10659 10658 10657 10657 10656 10656 10655 10655 10655 10655 10655 10655 10656 10657 10659 10659 10660 10660 10660 10660 10660 10660 10659 10658 10656 10654 10653 10651 10651 10650 10649 10649 10649 10650 10650 10650 10650 10649 10649 10649 10649 10649 10650 10650 10652 10653 10654 10656 10656 10657 10659 10660 10660 10660 10660 10660 10659 10659 10659 10658 10658 10658 10657 10656 10656 10656 10655 10655 10656 10657 10655 10653 10653 10653 10652
10649 10646 10646 10649 10651 10653 10654 10654 10654 10654 10654 10654 10654 10654 10654 10653 10653 10653 10653 10652 10652 10652 10653 10654 10655 10655 10656 10656 10656 10657 10658 10658 10657 10656 10654 10653 10651 10650 10649 10649 10648 10647 10647 10647 10647 10647 10647 10647 10647 10647 10647 10646 10646 10647 10648 10649 10651 10651 10652 10653 10655 10655 10655 10656 10656 10655 10655 10656 10655 10655 10655 10655 10653 10652 10651 10651 10651 10650 10651 10652 10652 10649 10648 10648 10647